When you browse on this site, cookies collect data to enhance your experience and personalize the content and advertising you see.
Visit our Privacy Policy to learn more. By continuing to use the site, you agree to this use of cookies and data.
  • In Germany
  • List of Countries
  • For 7 days
  • Water Temperature
  • Satellite Maps
  • Weather Map
  • Weather Widgets
  • user-avatar
    Login

    Hourly Weather Hrazdan

    Today, 18 January, Friday

    Time Temperature Precipitation Wind Pressure Humidity
    00:00 -10°C° 0.1 mm 2 mps 604 mmHg 87%
    01:00 -9°C° 0 mm 1 mps 604 mmHg 86%
    02:00 -10°C° 0 mm 1 mps 605 mmHg 85%
    03:00 -11°C° 0 mm 1 mps 605 mmHg 82%
    04:00 -11°C° 0 mm 1 mps 605 mmHg 81%
    05:00 -11°C° 0 mm 1 mps 606 mmHg 79%
    06:00 -11°C° 0 mm 1 mps 606 mmHg 78%
    07:00 -10°C° 0 mm 1 mps 607 mmHg 78%
    08:00 -10°C° 0 mm 1 mps 607 mmHg 77%
    09:00 -8°C° 0 mm 1 mps 608 mmHg 78%
    10:00 -7°C° 0 mm 1 mps 608 mmHg 76%
    11:00 -6°C° 0 mm 1 mps 609 mmHg 74%
    12:00 -3°C° 0 mm 1 mps 609 mmHg 72%
    13:00 -3°C° 0 mm 1 mps 609 mmHg 73%
    14:00 -3°C° 0 mm 1 mps 609 mmHg 74%
    15:00 -3°C° 0 mm 1 mps 609 mmHg 76%
    16:00 -6°C° 0 mm 1 mps 608 mmHg 76%
    17:00 -8°C° 0 mm 1 mps 608 mmHg 77%
    18:00 -10°C° 0 mm 1 mps 608 mmHg 77%
    19:00 -10°C° 0 mm 1 mps 608 mmHg 76%
    20:00 -11°C° 0 mm 1 mps 608 mmHg 75%
    21:00 -11°C° 0 mm 1 mps 608 mmHg 74%
    22:00 -11°C° 0 mm 1 mps 608 mmHg 74%
    23:00 -11°C° 0 mm 1 mps 608 mmHg 73%

    Tomorrow, 19 January, Saturday

    Time Temperature Precipitation Wind Pressure Humidity
    00:00 -11°C° 0 mm 1 mps 608 mmHg 73%
    01:00 -11°C° 0 mm 1 mps 608 mmHg 73%
    02:00 -13°C° 0 mm 2 mps 608 mmHg 73%
    03:00 -13°C° 0 mm 2 mps 608 mmHg 73%
    04:00 -13°C° 0 mm 2 mps 608 mmHg 73%
    05:00 -13°C° 0 mm 2 mps 608 mmHg 73%
    06:00 -13°C° 0 mm 2 mps 608 mmHg 73%
    07:00 -12°C° 0 mm 2 mps 609 mmHg 73%
    08:00 -10°C° 0 mm 2 mps 609 mmHg 73%
    09:00 -9°C° 0 mm 2 mps 609 mmHg 73%
    10:00 -8°C° 0 mm 2 mps 609 mmHg 72%
    11:00 -6°C° 0 mm 2 mps 610 mmHg 72%
    12:00 -6°C° 0 mm 3 mps 610 mmHg 71%
    13:00 -5°C° 0 mm 2 mps 609 mmHg 71%
    14:00 -5°C° 0 mm 2 mps 609 mmHg 72%
    15:00 -5°C° 0 mm 2 mps 609 mmHg 72%
    16:00 -7°C° 0 mm 2 mps 609 mmHg 68%
    17:00 -9°C° 0 mm 2 mps 608 mmHg 65%
    18:00 -12°C° 0 mm 2 mps 608 mmHg 62%
    19:00 -12°C° 0 mm 2 mps 608 mmHg 60%
    20:00 -12°C° 0 mm 2 mps 608 mmHg 58%
    21:00 -12°C° 0 mm 2 mps 608 mmHg 56%
    22:00 -12°C° 0 mm 2 mps 608 mmHg 57%
    23:00 -12°C° 0 mm 2 mps 609 mmHg 58%

    Day after tomorrow, 20 January, Sunday

    Time Temperature Precipitation Wind Pressure Humidity
    00:00 -12°C° 0 mm 2 mps 609 mmHg 59%
    01:00 -12°C° 0 mm 2 mps 609 mmHg 60%
    02:00 -12°C° 0 mm 2 mps 609 mmHg 61%
    03:00 -12°C° 0 mm 2 mps 609 mmHg 61%
    04:00 -12°C° 0 mm 2 mps 609 mmHg 61%
    05:00 -12°C° 0 mm 2 mps 609 mmHg 61%
    06:00 -13°C° 0 mm 2 mps 609 mmHg 61%
    07:00 -10°C° 0 mm 2 mps 610 mmHg 62%
    08:00 -9°C° 0 mm 2 mps 610 mmHg 64%
    09:00 -8°C° 0 mm 2 mps 611 mmHg 66%
    10:00 -7°C° 0 mm 2 mps 611 mmHg 65%
    11:00 -6°C° 0 mm 2 mps 611 mmHg 65%
    12:00 -4°C° 0 mm 2 mps 612 mmHg 64%
    13:00 -4°C° 0 mm 2 mps 611 mmHg 65%
    14:00 -5°C° 0 mm 2 mps 611 mmHg 67%
    15:00 -3°C° 0 mm 1 mps 611 mmHg 68%
    16:00 -4°C° 0 mm 1 mps 610 mmHg 66%
    17:00 -7°C° 0 mm 1 mps 610 mmHg 65%
    18:00 -8°C° 0 mm 1 mps 610 mmHg 63%
    19:00 -8°C° 0 mm 1 mps 610 mmHg 60%
    20:00 -9°C° 0 mm 1 mps 610 mmHg 58%
    21:00 -9°C° 0 mm 1 mps 610 mmHg 56%
    22:00 -9°C° 0 mm 1 mps 610 mmHg 55%
    23:00 -12°C° 0 mm 2 mps 610 mmHg 54%

    21 January, Monday

    Time Temperature Precipitation Wind Pressure Humidity
    00:00 -12°C° 0 mm 2 mps 610 mmHg 53%
    01:00 -12°C° 0 mm 2 mps 610 mmHg 53%
    02:00 -12°C° 0 mm 2 mps 610 mmHg 54%
    03:00 -13°C° 0 mm 2 mps 610 mmHg 54%
    04:00 -13°C° 0 mm 2 mps 610 mmHg 56%
    05:00 -13°C° 0 mm 2 mps 610 mmHg 57%
    06:00 -13°C° 0 mm 2 mps 610 mmHg 58%
    07:00 -12°C° 0 mm 2 mps 610 mmHg 61%
    08:00 -10°C° 0 mm 2 mps 610 mmHg 63%
    09:00 -9°C° 0 mm 2 mps 611 mmHg 65%
    10:00 -8°C° 0 mm 2 mps 611 mmHg 65%
    11:00 -7°C° 0 mm 2 mps 611 mmHg 64%
    12:00 -5°C° 0 mm 2 mps 611 mmHg 64%
    13:00 -5°C° 0 mm 2 mps 610 mmHg 64%
    14:00 -5°C° 0 mm 2 mps 610 mmHg 65%
    15:00 -5°C° 0 mm 2 mps 609 mmHg 66%
    16:00 -7°C° 0 mm 2 mps 609 mmHg 64%
    17:00 -9°C° 0 mm 2 mps 608 mmHg 61%
    18:00 -12°C° 0 mm 2 mps 608 mmHg 59%
    19:00 -12°C° 0 mm 2 mps 608 mmHg 57%
    20:00 -12°C° 0 mm 2 mps 608 mmHg 56%
    21:00 -12°C° 0 mm 2 mps 608 mmHg 55%
    22:00 -12°C° 0 mm 2 mps 608 mmHg 56%
    23:00 -12°C° 0 mm 2 mps 608 mmHg 58%

    22 January, Tuesday

    Time Temperature Precipitation Wind Pressure Humidity
    00:00 -12°C° 0 mm 2 mps 608 mmHg 60%
    01:00 -13°C° 0 mm 2 mps 607 mmHg 61%
    02:00 -13°C° 0 mm 2 mps 607 mmHg 62%
    03:00 -13°C° 0 mm 2 mps 607 mmHg 64%
    04:00 -13°C° 0 mm 2 mps 607 mmHg 64%
    05:00 -13°C° 0 mm 2 mps 607 mmHg 65%
    06:00 -13°C° 0 mm 2 mps 607 mmHg 65%
    07:00 -12°C° 0 mm 2 mps 607 mmHg 66%
    08:00 -12°C° 0 mm 3 mps 607 mmHg 67%
    09:00 -10°C° 0 mm 3 mps 608 mmHg 68%
    10:00 -9°C° 0 mm 3 mps 608 mmHg 68%
    11:00 -7°C° 0 mm 3 mps 608 mmHg 68%
    12:00 -6°C° 0 mm 3 mps 608 mmHg 68%
    13:00 -6°C° 0 mm 3 mps 607 mmHg 68%
    14:00 -6°C° 0 mm 3 mps 607 mmHg 69%
    15:00 -5°C° 0 mm 2 mps 607 mmHg 70%
    16:00 -7°C° 0 mm 2 mps 606 mmHg 68%
    17:00 -8°C° 0 mm 2 mps 606 mmHg 66%
    18:00 -10°C° 0 mm 2 mps 606 mmHg 64%
    19:00 -10°C° 0 mm 2 mps 606 mmHg 63%
    20:00 -10°C° 0 mm 2 mps 606 mmHg 62%
    21:00 -12°C° 0 mm 2 mps 606 mmHg 62%
    22:00 -12°C° 0 mm 2 mps 606 mmHg 63%
    23:00 -10°C° 0 mm 2 mps 606 mmHg 65%

    23 January, Wednesday

    Time Temperature Precipitation Wind Pressure Humidity
    00:00 -10°C° 0 mm 2 mps 606 mmHg 66%
    01:00 -12°C° 0 mm 2 mps 606 mmHg 67%
    02:00 -12°C° 0 mm 2 mps 606 mmHg 68%
    03:00 -12°C° 0 mm 2 mps 606 mmHg 69%
    04:00 -12°C° 0 mm 2 mps 606 mmHg 69%
    05:00 -12°C° 0 mm 2 mps 606 mmHg 69%
    06:00 -12°C° 0 mm 2 mps 606 mmHg 70%
    07:00 -12°C° 0 mm 2 mps 607 mmHg 71%
    08:00 -10°C° 0 mm 2 mps 607 mmHg 72%
    09:00 -9°C° 0 mm 2 mps 608 mmHg 72%
    10:00 -8°C° 0 mm 2 mps 608 mmHg 72%
    11:00 -7°C° 0 mm 2 mps 608 mmHg 71%
    12:00 -5°C° 0 mm 2 mps 608 mmHg 70%
    13:00 -5°C° 0 mm 2 mps 608 mmHg 71%
    14:00 -5°C° 0 mm 2 mps 608 mmHg 72%
    15:00 -5°C° 0 mm 2 mps 608 mmHg 73%
    16:00 -7°C° 0 mm 2 mps 607 mmHg 73%
    17:00 -8°C° 0 mm 2 mps 607 mmHg 74%
    18:00 -9°C° 0 mm 2 mps 607 mmHg 74%
    19:00 -10°C° 0 mm 2 mps 607 mmHg 74%
    20:00 -10°C° 0 mm 2 mps 607 mmHg 74%
    21:00 -10°C° 0 mm 2 mps 608 mmHg 74%
    22:00 -12°C° 0 mm 2 mps 608 mmHg 75%
    23:00 -12°C° 0 mm 2 mps 608 mmHg 76%
    Show more